Home   Weather   Popayán   Past weeks
Flag for Colombia

Past Weather in Popayán, Colombia — Yesterday and Last 2 Weeks

Now
70 °F

Partly cloudy.


Feels Like: 70 °F
Forecast: 75 / 59 °F
Wind: 3 mph from North

Location: Cali / Alfonso Bonillaaragon

Current Time: Apr 19, 2019 at 9:51:32 pm

Latest Report: Apr 19, 2019 at 9:00 pm


Visibility: N/A

Pressure: 30.01 "Hg (24.46 "Hg at 1760m altitude)

Humidity: 94%

Dew Point: 68 °F

Location of PopayánLocation

Past Weather in Popayán — Graph

°F

Popayán Temperature Yesterday

Maximum temperature yesterday: 86 °F (at 2:00 pm)
Minimum temperature yesterday: 68 °F (at 3:00 am)
Average temperature yesterday: 74 °F

High & Low Weather Summary for the Past Weeks

 TemperatureHumidityPressure
High90 °F (Apr 7, 3:00 pm)100% (Apr 5, 5:30 am)30.11 "Hg (Apr 5, 5:30 am)
Low66 °F (Apr 12, 2:00 am)46% (Apr 7, 3:00 pm)29.80 "Hg (Apr 12, 5:00 pm)
Average75 °F80%29.98 "Hg
* Reported Apr 4 8:00 pm — Apr 19 8:00 pm, Popayán. Weather by CustomWeather, © 2019

Note: Actual official high and low records may vary slightly from our data, if they occured in-between our weather recording intervals... More about our weather records

Advertising

Popayán Weather History for the Previous 24 Hours

Scroll right to see more
 ConditionsComfort  
Time TempWeatherWind HumidityBarometerVisibility
8:00 pm
Fri, Apr 19
70 °FPassing clouds.3 mph94%29.98 "HgN/A
7:00 pm70 °FPassing clouds.5 mph94%29.98 "HgN/A
6:00 pm72 °FPartly sunny.5 mph88%29.95 "HgN/A
5:00 pm73 °FDrizzle. Broken clouds.9 mph83%29.94 "Hg5 mi
4:30 pm77 °FThunderstorms. Broken clouds.9 mph74%29.94 "Hg4 mi
4:00 pm79 °FScattered showers. Broken clouds.5 mph70%29.93 "Hg5 mi
3:00 pm79 °FScattered showers. Broken clouds.7 mph74%29.93 "Hg5 mi
2:00 pm79 °FScattered showers. Broken clouds.6 mph74%29.97 "Hg5 mi
1:00 pm79 °FScattered showers. Broken clouds.3 mph74%29.99 "Hg5 mi
12:00 pm75 °FScattered showers. Scattered clouds.3 mph94%30.03 "Hg4 mi
11:00 am73 °FScattered showers. Broken clouds.2 mph94%30.06 "Hg4 mi
10:00 am72 °FScattered showers. Partly sunny.6 mph94%30.08 "Hg3 mi
9:00 am73 °FScattered showers. Partly sunny.2 mph89%30.07 "Hg3 mi
8:00 am72 °FDrizzle. Partly sunny.2 mph88%30.05 "Hg3 mi
7:00 am70 °FDrizzle. Partly sunny.6 mph94%30.01 "Hg2 mi
6:00 am70 °FDrizzle. Broken clouds.2 mph100%29.99 "Hg2 mi
5:30 am70 °FThunderstorms. Partly cloudy.2 mph100%29.98 "Hg4 mi
5:00 am70 °FThunderstorms. Partly cloudy.3 mph100%29.97 "Hg5 mi
4:13 am72 °FThunderstorms. Partly cloudy.3 mph94%29.96 "Hg4 mi
4:00 am72 °FRain. Partly cloudy.5 mph94%29.96 "Hg5 mi
3:00 am72 °FPassing clouds.3 mph94%29.95 "HgN/A
2:00 am72 °FPartly cloudy.5 mph94%29.95 "HgN/A
1:00 am72 °FPassing clouds.5 mph94%29.97 "HgN/A
12:00 am72 °FPassing clouds.5 mph94%29.99 "HgN/A
11:00 pm
Thu, Apr 18
72 °FPassing clouds.5 mph88%29.99 "HgN/A
10:00 pm72 °FPassing clouds.5 mph88%29.99 "HgN/A
9:00 pm73 °FPassing clouds.6 mph83%29.95 "HgN/A
Weather by CustomWeather, © 2019

See weather overview